• In Moldova, Republic
  • List of Countries
  • For 7 days
  • Water Temperature
  • Satellite Maps
  • Weather Map
  • Weather Widgets
  • user-avatar
    Login

    Hourly Weather Graz

    Today, 22 September, Friday

    Time Temperature Precipitation Wind Pressure Humidity
    00:00 +7°C° 0 mm 2 mps 726 mmHg 87%
    01:00 +8°C° 0 mm 2 mps 726 mmHg 86%
    02:00 +7°C° 0 mm 2 mps 726 mmHg 86%
    03:00 +7°C° 0 mm 2 mps 726 mmHg 86%
    04:00 +8°C° 0 mm 1 mps 726 mmHg 86%
    05:00 +9°C° 0 mm 1 mps 726 mmHg 84%
    06:00 +9°C° 0 mm 1 mps 726 mmHg 82%
    07:00 +10°C° 0 mm 1 mps 727 mmHg 81%
    08:00 +13°C° 0 mm 1 mps 727 mmHg 71%
    09:00 +16°C° 0 mm 1 mps 727 mmHg 61%
    10:00 +19°C° 0 mm 1 mps 727 mmHg 51%
    11:00 +20°C° 0 mm 1 mps 727 mmHg 49%
    12:00 +21°C° 0 mm 1 mps 727 mmHg 48%
    13:00 +22°C° 0 mm 1 mps 727 mmHg 46%
    14:00 +21°C° 0 mm 1 mps 727 mmHg 50%
    15:00 +20°C° 0 mm 1 mps 727 mmHg 53%
    16:00 +20°C° 0 mm 1 mps 727 mmHg 56%
    17:00 +18°C° 0 mm 1 mps 727 mmHg 64%
    18:00 +15°C° 0 mm 1 mps 727 mmHg 72%
    19:00 +12°C° 0 mm 0 mps 727 mmHg 80%
    20:00 +12°C° 0 mm 1 mps 727 mmHg 83%
    21:00 +12°C° 0 mm 1 mps 727 mmHg 85%
    22:00 +11°C° 0 mm 1 mps 727 mmHg 87%
    23:00 +11°C° 0 mm 1 mps 727 mmHg 88%

    Tomorrow, 23 September, Saturday

    Time Temperature Precipitation Wind Pressure Humidity
    00:00 +10°C° 0 mm 1 mps 728 mmHg 89%
    01:00 +10°C° 0 mm 1 mps 728 mmHg 90%
    02:00 +10°C° 0 mm 1 mps 727 mmHg 90%
    03:00 +10°C° 0 mm 1 mps 727 mmHg 91%
    04:00 +9°C° 0 mm 1 mps 727 mmHg 91%
    05:00 +10°C° 0 mm 1 mps 727 mmHg 89%
    06:00 +10°C° 0 mm 1 mps 727 mmHg 87%
    07:00 +11°C° 0 mm 1 mps 728 mmHg 84%
    08:00 +14°C° 0 mm 1 mps 728 mmHg 75%
    09:00 +18°C° 0 mm 1 mps 728 mmHg 66%
    10:00 +20°C° 0 mm 1 mps 728 mmHg 57%
    11:00 +21°C° 0 mm 1 mps 727 mmHg 54%
    12:00 +22°C° 0 mm 1 mps 727 mmHg 51%
    13:00 +23°C° 0 mm 1 mps 727 mmHg 49%
    14:00 +22°C° 0 mm 1 mps 726 mmHg 53%
    15:00 +22°C° 0 mm 1 mps 726 mmHg 56%
    16:00 +21°C° 0 mm 1 mps 726 mmHg 60%
    17:00 +19°C° 0.2 mm 1 mps 726 mmHg 69%
    18:00 +16°C° 0.2 mm 1 mps 726 mmHg 78%
    19:00 +14°C° 0.2 mm 1 mps 726 mmHg 87%
    20:00 +13°C° 0.1 mm 1 mps 726 mmHg 89%
    21:00 +13°C° 0.1 mm 1 mps 726 mmHg 91%
    22:00 +12°C° 0.1 mm 1 mps 726 mmHg 93%
    23:00 +12°C° 0.1 mm 1 mps 726 mmHg 94%

    Day after tomorrow, 24 September, Sunday

    Time Temperature Precipitation Wind Pressure Humidity
    00:00 +11°C° 0.1 mm 1 mps 726 mmHg 94%
    01:00 +11°C° 0.1 mm 1 mps 725 mmHg 95%
    02:00 +11°C° 0 mm 1 mps 725 mmHg 95%
    03:00 +11°C° 0 mm 1 mps 725 mmHg 95%
    04:00 +10°C° 0 mm 1 mps 725 mmHg 95%
    05:00 +11°C° 0.1 mm 1 mps 725 mmHg 94%
    06:00 +11°C° 0.1 mm 1 mps 725 mmHg 92%
    07:00 +12°C° 0.1 mm 1 mps 726 mmHg 91%
    08:00 +13°C° 0.1 mm 0 mps 726 mmHg 85%
    09:00 +15°C° 0.1 mm 0 mps 726 mmHg 79%
    10:00 +17°C° 0.1 mm 0 mps 726 mmHg 73%
    11:00 +17°C° 0.4 mm 0 mps 726 mmHg 72%
    12:00 +19°C° 0.4 mm 1 mps 726 mmHg 72%
    13:00 +20°C° 0.4 mm 1 mps 726 mmHg 71%
    14:00 +19°C° 1.4 mm 1 mps 726 mmHg 78%
    15:00 +16°C° 1.4 mm 1 mps 725 mmHg 84%
    16:00 +14°C° 1.4 mm 0 mps 725 mmHg 91%
    17:00 +14°C° 1.4 mm 0 mps 725 mmHg 92%
    18:00 +14°C° 1.4 mm 1 mps 726 mmHg 94%
    19:00 +13°C° 1.4 mm 1 mps 726 mmHg 95%
    20:00 +13°C° 2.1 mm 1 mps 726 mmHg 96%
    21:00 +13°C° 2.1 mm 1 mps 726 mmHg 96%
    22:00 +13°C° 2.1 mm 1 mps 726 mmHg 97%
    23:00 +13°C° 1.8 mm 1 mps 726 mmHg 97%

    25 September, Monday

    Time Temperature Precipitation Wind Pressure Humidity
    00:00 +13°C° 1.8 mm 1 mps 726 mmHg 96%
    01:00 +12°C° 1.8 mm 1 mps 726 mmHg 96%
    02:00 +12°C° 1.5 mm 1 mps 726 mmHg 96%
    03:00 +12°C° 1.5 mm 1 mps 726 mmHg 96%
    04:00 +12°C° 1.5 mm 1 mps 726 mmHg 96%
    05:00 +12°C° 2 mm 1 mps 726 mmHg 96%
    06:00 +12°C° 2 mm 1 mps 726 mmHg 96%
    07:00 +12°C° 2 mm 1 mps 726 mmHg 96%
    08:00 +12°C° 1.3 mm 1 mps 726 mmHg 95%
    09:00 +12°C° 1.3 mm 1 mps 726 mmHg 95%
    10:00 +12°C° 1.3 mm 1 mps 727 mmHg 94%
    11:00 +13°C° 0.4 mm 1 mps 727 mmHg 91%
    12:00 +14°C° 0.4 mm 1 mps 726 mmHg 89%
    13:00 +14°C° 0.4 mm 1 mps 726 mmHg 86%
    14:00 +15°C° 0.3 mm 1 mps 726 mmHg 86%
    15:00 +15°C° 0.3 mm 1 mps 726 mmHg 87%
    16:00 +15°C° 0.3 mm 1 mps 726 mmHg 87%
    17:00 +14°C° 0.3 mm 1 mps 726 mmHg 89%
    18:00 +14°C° 0.3 mm 1 mps 727 mmHg 92%
    19:00 +13°C° 0.3 mm 1 mps 727 mmHg 94%
    20:00 +13°C° 0.4 mm 1 mps 727 mmHg 94%
    21:00 +13°C° 0.4 mm 1 mps 727 mmHg 94%
    22:00 +13°C° 0.4 mm 1 mps 727 mmHg 94%
    23:00 +12°C° 0.2 mm 1 mps 727 mmHg 94%

    26 September, Tuesday

    Time Temperature Precipitation Wind Pressure Humidity
    00:00 +12°C° 0.2 mm 1 mps 727 mmHg 95%
    01:00 +12°C° 0.2 mm 1 mps 727 mmHg 95%
    02:00 +12°C° 0.1 mm 1 mps 727 mmHg 95%
    03:00 +12°C° 0.1 mm 1 mps 727 mmHg 95%
    04:00 +12°C° 0.1 mm 1 mps 727 mmHg 96%
    05:00 +12°C° 0 mm 1 mps 727 mmHg 95%
    06:00 +12°C° 0 mm 1 mps 727 mmHg 95%
    07:00 +13°C° 0 mm 1 mps 727 mmHg 94%
    08:00 +14°C° 0 mm 1 mps 727 mmHg 90%
    09:00 +16°C° 0 mm 1 mps 727 mmHg 85%
    10:00 +18°C° 0 mm 1 mps 728 mmHg 80%
    11:00 +19°C° 0.2 mm 1 mps 727 mmHg 79%
    12:00 +19°C° 0.2 mm 1 mps 727 mmHg 78%
    13:00 +19°C° 0.2 mm 1 mps 727 mmHg 76%
    14:00 +19°C° 0.5 mm 1 mps 727 mmHg 79%
    15:00 +19°C° 0.5 mm 1 mps 727 mmHg 81%
    16:00 +19°C° 0.5 mm 1 mps 727 mmHg 84%
    17:00 +18°C° 0.7 mm 1 mps 727 mmHg 88%
    18:00 +15°C° 0.7 mm 1 mps 727 mmHg 91%
    19:00 +14°C° 0.7 mm 1 mps 727 mmHg 95%
    20:00 +14°C° 0.9 mm 1 mps 727 mmHg 95%
    21:00 +14°C° 0.9 mm 1 mps 727 mmHg 95%
    22:00 +14°C° 0.9 mm 1 mps 728 mmHg 95%
    23:00 +13°C° 0.5 mm 1 mps 728 mmHg 95%

    27 September, Wednesday

    Time Temperature Precipitation Wind Pressure Humidity
    00:00 +13°C° 0.5 mm 1 mps 728 mmHg 95%
    01:00 +13°C° 0.5 mm 1 mps 728 mmHg 95%
    02:00 +13°C° 0.1 mm 1 mps 728 mmHg 94%
    03:00 +12°C° 0.1 mm 1 mps 728 mmHg 94%
    04:00 +12°C° 0.1 mm 1 mps 728 mmHg 94%
    05:00 +13°C° 0.1 mm 1 mps 728 mmHg 93%
    06:00 +13°C° 0.1 mm 1 mps 728 mmHg 93%
    07:00 +13°C° 0.1 mm 1 mps 729 mmHg 92%
    08:00 +15°C° 0.1 mm 1 mps 729 mmHg 86%
    09:00 +18°C° 0.1 mm 1 mps 729 mmHg 81%
    10:00 +20°C° 0.1 mm 1 mps 729 mmHg 75%
    11:00 +20°C° 0.7 mm 1 mps 729 mmHg 74%
    12:00 +21°C° 0.7 mm 1 mps 729 mmHg 73%
    13:00 +21°C° 0.7 mm 1 mps 729 mmHg 71%
    14:00 +21°C° 0.8 mm 1 mps 729 mmHg 74%
    15:00 +20°C° 0.8 mm 1 mps 729 mmHg 77%
    16:00 +20°C° 0.8 mm 1 mps 729 mmHg 80%
    17:00 +18°C° 0.3 mm 1 mps 729 mmHg 84%
    18:00 +16°C° 0.3 mm 1 mps 729 mmHg 87%
    19:00 +14°C° 0.3 mm 1 mps 729 mmHg 91%
    20:00 +14°C° 0.2 mm 1 mps 729 mmHg 92%
    21:00 +14°C° 0.2 mm 1 mps 729 mmHg 92%
    22:00 +13°C° 0.2 mm 1 mps 730 mmHg 93%
    23:00 +13°C° 0.1 mm 1 mps 730 mmHg 93%
    Show more